Date,TemperatureHighF,TemperatureAvgF,TemperatureLowF,DewpointHighF,DewpointAvgF,DewpointLowF,HumidityHigh,HumidityAvg,HumidityLow,PressureMaxIn,PressureMinIn,WindSpeedMaxMPH,WindSpeedAvgMPH,GustSpeedMaxMPH,PrecipitationSumIn
2013-1-1,22.0,13.0,8.0,13.0,4.0,-2.0,88,68,34,0.00,40.00,0,-999,0,0.00
2013-1-2,17.0,12.0,7.0,5.0,-2.4,-13.0,77,54,24,0.00,40.00,0,-999,0,0.00
2013-1-3,41.0,26.2,18.0,8.0,-4.4,-17.0,41,26,16,0.00,40.00,0,-999,0,0.00
2013-1-4,40.0,26.7,14.0,6.0,-1.1,-12.0,51,31,18,0.00,40.00,0,-999,0,0.00
2013-1-5,30.0,16.6,4.0,12.0,0.0,-15.0,74,50,20,0.00,40.00,0,-999,0,0.00
2013-1-6,40.0,28.5,16.0,12.0,-2.2,-22.0,51,29,8,0.00,40.00,0,-999,0,0.00
2013-1-7,31.0,24.4,13.0,15.0,8.1,0.0,69,50,32,0.00,40.00,0,-999,0,0.00
2013-1-8,28.0,23.3,20.0,15.0,9.9,5.0,70,56,47,0.00,40.00,0,-999,0,0.00
2013-1-9,42.0,34.7,27.0,15.0,7.0,-1.0,58,33,19,0.00,40.00,0,-999,0,0.00
2013-1-10,37.0,31.8,21.0,16.0,8.9,-2.0,80,42,19,0.00,40.00,0,-999,0,0.00
2013-1-11,22.0,5.6,-6.0,18.0,2.2,-10.0,90,85,80,0.00,40.00,0,-999,0,0.00
2013-1-12,0.0,-5.0,-12.0,-5.0,-9.4,-16.0,83,80,73,0.00,40.00,0,-999,0,0.00
2013-1-13,-1.0,-9.2,-18.0,-7.0,-14.0,-23.0,83,79,76,0.00,40.00,0,-999,0,0.00
2013-1-14,8.0,-4.0,-16.0,3.0,-11.9,-22.0,80,69,48,0.00,40.00,0,-999,0,0.00
2013-1-15,31.0,22.4,8.0,22.0,15.9,4.0,88,76,59,0.00,40.00,0,-999,0,0.02
2013-1-16,36.0,27.6,13.0,17.0,11.1,6.0,75,51,33,0.00,40.00,0,-999,0,0.01
2013-1-17,40.0,23.1,8.0,16.0,5.6,-1.0,86,54,24,0.00,40.00,0,-999,0,0.00
2013-1-18,43.0,34.5,29.0,5.0,1.8,-4.0,33,24,18,0.00,40.00,0,-999,0,0.01
2013-1-19,39.0,31.9,28.0,5.0,-5.5,-11.0,37,20,13,0.00,40.00,0,-999,0,0.00
2013-1-20,30.0,25.9,12.0,21.0,6.0,-3.0,93,43,24,0.00,40.00,0,-999,0,0.00
2013-1-21,39.0,32.7,26.0,12.0,4.5,-12.0,49,32,12,0.00,40.00,0,-999,0,0.00
2013-1-22,44.0,34.6,21.0,10.0,-4.5,-14.0,39,20,9,0.00,40.00,0,-999,0,0.00
2013-1-23,44.0,38.0,32.0,5.0,-1.6,-7.0,30,19,13,0.00,40.00,0,-999,0,0.01
2013-1-24,39.0,32.3,24.0,17.0,10.0,-6.0,69,41,15,0.00,40.00,0,-999,0,0.00
2013-1-25,40.0,29.8,22.0,15.0,8.3,3.0,68,42,25,0.00,40.00,0,-999,0,0.00
2013-1-26,39.0,30.7,24.0,19.0,16.9,14.0,69,57,41,0.00,40.00,0,-999,0,0.00
2013-1-27,33.0,25.3,16.0,23.0,18.2,14.0,97,76,54,0.00,40.00,0,-999,0,0.01
2013-1-28,15.0,10.3,-1.0,13.0,7.8,-5.0,93,89,83,0.00,40.00,0,-999,0,0.01
2013-1-29,14.0,4.1,-2.0,7.0,-1.4,-9.0,85,78,67,0.00,40.00,0,-999,0,0.00
2013-1-30,20.0,15.1,1.0,12.0,7.0,-8.0,77,70,61,0.00,40.00,0,-999,0,0.00
2013-1-31,25.0,22.9,20.0,14.0,11.6,7.0,69,61,54,0.00,40.00,0,-999,0,0.01
2013-2-1,31.0,22.6,20.0,18.0,11.3,6.0,89,63,42,0.00,40.00,0,-999,0,0.00
2013-2-2,32.0,19.8,8.0,14.0,6.9,0.0,81,59,26,0.00,40.00,0,-999,0,0.00
2013-2-3,38.0,26.9,11.0,8.0,1.6,-6.0,81,38,17,0.00,40.00,0,-999,0,0.00
2013-2-4,34.0,27.0,20.0,16.0,11.0,5.0,68,51,44,0.00,40.00,0,-999,0,0.00
2013-2-5,37.0,24.1,12.0,20.0,14.0,8.0,93,66,44,0.00,40.00,0,-999,0,0.00
2013-2-6,29.0,21.6,10.0,17.0,8.5,3.0,87,58,33,0.00,40.00,0,-999,0,0.00
2013-2-7,34.0,18.0,2.0,15.0,-5.3,-13.0,85,45,13,0.00,40.00,0,-999,0,0.00
2013-2-8,30.0,21.8,15.0,13.0,-1.4,-12.0,84,38,19,0.00,40.00,0,-999,0,0.00
2013-2-9,19.0,15.6,11.0,15.0,12.3,8.0,93,87,73,0.00,40.00,0,-999,0,0.01
2013-2-10,14.0,8.0,0.0,8.0,2.6,-6.0,88,78,47,0.00,40.00,0,-999,0,0.01
2013-2-11,20.0,5.0,-8.0,3.0,-5.5,-13.0,81,63,37,0.00,40.00,0,-999,0,0.00
2013-2-12,26.0,14.2,5.0,11.0,4.9,-7.0,86,67,46,0.00,40.00,0,-999,0,0.00
2013-2-13,29.0,21.9,10.0,16.0,10.4,7.0,92,63,43,0.00,40.00,0,-999,0,0.01
2013-2-14,17.0,10.4,6.0,12.0,4.8,2.0,88,78,59,0.00,40.00,0,-999,0,0.00
2013-2-15,28.0,19.0,7.0,16.0,8.5,-3.0,88,66,27,0.00,40.00,0,-999,0,0.01
2013-2-16,42.0,31.4,22.0,18.0,8.5,-2.0,72,41,16,0.00,40.00,0,-999,0,0.01
2013-2-17,31.0,22.5,13.0,18.0,6.0,-6.0,71,51,20,0.00,40.00,0,-999,0,0.00
2013-2-18,18.0,9.7,-2.0,8.0,1.6,-6.0,89,70,51,0.00,40.00,0,-999,0,0.00
2013-2-19,35.0,20.8,-5.0,4.0,-10.1,-23.0,67,31,9,0.00,40.00,0,-999,0,0.01
2013-2-20,31.0,19.7,9.0,12.0,4.9,-1.0,78,54,30,0.00,40.00,0,-999,0,0.01
2013-2-21,24.0,12.9,4.0,13.0,6.8,1.0,92,77,53,0.00,40.00,0,-999,0,0.00
2013-2-22,21.0,7.2,-6.0,7.0,-0.5,-10.0,86,71,46,0.00,40.00,0,-999,0,0.00
2013-2-23,22.0,17.8,6.0,18.0,11.0,-1.0,87,75,62,0.00,40.00,0,-999,0,0.01
2013-2-24,24.0,13.2,0.0,6.0,-4.1,-99.9,77,58,39,0.00,40.00,0,-999,0,0.00
2013-2-25,35.0,18.5,-1.0,11.0,0.9,-12.0,68,49,21,0.00,40.00,0,-999,0,0.01
2013-2-26,23.0,14.9,4.0,15.0,5.5,-3.0,89,67,43,0.00,40.00,0,-999,0,0.01
2013-2-27,21.0,10.0,-5.0,7.0,-0.8,-10.0,79,63,42,0.00,40.00,0,-999,0,0.00
2013-2-28,26.0,20.1,15.0,9.0,-0.1,-14.0,57,42,18,0.00,40.00,0,-999,0,0.01
2013-3-1,39.0,31.4,22.0,23.0,11.8,-16.0,62,47,15,0.00,40.00,0,-999,0,0.00
2013-3-2,45.0,34.0,25.0,22.0,14.7,8.0,69,47,23,0.00,40.00,0,-999,0,0.00
2013-3-3,39.0,30.9,15.0,25.0,18.3,8.0,81,60,45,0.00,40.00,0,-999,0,0.00
2013-3-4,15.0,8.8,-6.0,12.0,-7.2,-20.0,90,49,25,0.00,40.00,0,-999,0,0.00
2013-3-5,30.0,13.7,-6.0,6.0,-7.2,-21.0,54,39,19,0.00,40.00,0,-999,0,0.00
2013-3-6,40.0,28.6,14.0,18.0,8.0,-1.0,59,43,21,0.00,40.00,0,-999,0,0.00
2013-3-7,36.0,27.7,20.0,24.0,14.7,1.0,84,60,23,0.00,40.00,0,-999,0,0.00
2013-3-8,41.0,27.8,18.0,24.0,18.7,15.0,91,71,41,0.00,40.00,0,-999,0,0.00
2013-3-9,25.0,20.5,15.0,19.0,6.9,-99.9,82,65,47,0.00,40.00,0,-999,0,0.00
2013-3-10,38.0,28.0,16.0,15.0,6.1,-13.0,52,40,20,0.00,40.00,0,-999,0,0.00
2013-3-11,28.0,20.9,13.0,16.0,11.0,2.0,87,67,32,0.00,40.00,0,-999,0,0.00
2013-3-12,34.0,19.5,5.0,20.0,10.6,2.0,89,69,45,0.00,40.00,0,-999,0,0.00
2013-3-13,46.0,36.4,27.0,23.0,17.9,15.0,65,48,32,0.00,40.00,0,-999,0,0.01
2013-3-14,50.0,39.3,28.0,23.0,19.7,17.0,66,47,29,0.00,40.00,0,-999,0,0.00
2013-3-15,47.0,38.0,26.0,25.0,17.2,12.0,87,45,26,0.00,40.00,0,-999,0,0.00
2013-3-16,32.0,25.7,18.0,28.0,23.5,15.0,97,92,86,0.00,40.00,0,-999,0,0.01
2013-3-17,28.0,21.7,12.0,22.0,11.7,-2.0,85,66,51,0.00,40.00,0,-999,0,0.01
2013-3-18,20.0,13.6,8.0,11.0,1.2,-5.0,80,58,40,0.00,40.00,0,-999,0,0.00
2013-3-19,26.0,14.4,7.0,7.0,1.6,-6.0,91,58,37,0.00,40.00,0,-999,0,0.00
2013-3-20,36.0,27.4,8.0,21.0,10.5,-9.0,64,49,35,0.00,40.00,0,-999,0,0.00
2013-3-21,31.0,23.7,13.0,22.0,16.7,6.0,94,76,49,0.00,40.00,0,-999,0,0.00
2013-3-22,15.0,9.7,3.0,10.0,4.3,-1.0,87,78,49,0.00,40.00,0,-999,0,0.00
2013-3-23,12.0,2.2,-8.0,5.0,-2.9,-14.0,87,79,68,0.00,40.00,0,-999,0,0.01
2013-3-24,12.0,4.0,-7.0,-1.0,-6.5,-12.0,81,62,45,0.00,40.00,0,-999,0,0.00
2013-3-25,28.0,14.8,0.0,7.0,-2.4,-17.0,65,46,26,0.00,40.00,0,-999,0,0.01
2013-3-26,32.0,20.2,1.0,4.0,-2.2,-13.0,56,38,22,0.00,40.00,0,-999,0,0.00
2013-3-27,42.0,25.6,8.0,18.0,11.6,0.0,78,57,35,0.00,40.00,0,-999,0,0.00
2013-3-28,41.0,30.3,21.0,21.0,15.2,10.0,73,55,31,0.00,40.00,0,-999,0,0.00
2013-3-29,45.0,34.7,25.0,28.0,19.9,13.0,95,59,29,0.00,40.00,0,-999,0,0.00
2013-3-30,39.0,31.4,21.0,28.0,16.6,-99.9,97,65,38,0.00,40.00,0,-999,0,0.01
2013-3-31,42.0,30.6,22.0,24.0,15.1,9.0,85,55,31,0.00,40.00,0,-999,0,0.00
2013-4-1,39.0,27.1,16.0,22.0,14.5,9.0,92,62,31,0.00,40.00,0,-999,0,0.00
2013-4-2,46.0,31.9,19.0,19.0,12.7,3.0,70,46,30,0.00,40.00,0,-999,0,0.00
2013-4-3,45.0,35.4,27.0,24.0,18.5,11.0,81,51,34,0.00,40.00,0,-999,0,0.00
2013-4-4,48.0,39.6,26.0,28.0,22.6,19.0,81,51,33,0.00,40.00,0,-999,0,0.00
2013-4-5,44.0,37.9,30.0,31.0,25.6,20.0,95,63,42,0.00,40.00,0,-999,0,0.00
2013-4-6,42.0,33.4,26.0,26.0,21.3,16.0,80,63,37,0.00,40.00,0,-999,0,0.01
2013-4-7,38.0,32.4,27.0,27.0,22.2,16.0,91,67,46,0.00,40.00,0,-999,0,0.00
2013-4-8,28.0,19.8,11.0,27.0,17.0,8.0,95,89,81,0.00,40.00,0,-999,0,0.01
2013-4-9,17.0,9.0,4.0,12.0,5.5,1.0,89,85,79,0.00,40.00,0,-999,0,0.02
2013-4-10,29.0,20.2,6.0,24.0,15.0,3.0,90,81,66,0.00,40.00,0,-999,0,0.01
2013-4-11,38.0,30.2,26.0,27.0,20.7,15.0,91,68,48,0.00,40.00,0,-999,0,0.01
2013-4-12,32.0,24.1,17.0,19.0,12.5,1.0,95,65,30,0.00,40.00,0,-999,0,0.00
2013-4-13,36.0,30.3,20.0,29.0,18.8,8.0,92,63,40,0.00,40.00,0,-999,0,0.00
2013-4-14,22.0,17.0,10.0,16.0,5.5,-1.0,82,61,49,0.00,40.00,0,-999,0,0.00
2013-4-15,15.0,8.0,-3.0,9.0,3.5,-7.0,89,82,72,0.00,40.00,0,-999,0,0.00
2013-4-16,14.0,7.4,3.0,8.0,3.5,-1.0,89,85,77,0.00,40.00,0,-999,0,0.01
2013-4-17,16.0,7.6,-1.0,11.0,3.8,-5.0,87,84,78,0.00,40.00,0,-999,0,0.01
2013-4-18,31.0,17.9,-7.0,10.0,1.8,-11.0,84,53,31,0.00,40.00,0,-999,0,0.01
2013-4-19,33.0,26.8,18.0,22.0,15.3,7.0,76,62,52,0.00,40.00,0,-999,0,0.01
2013-4-20,37.0,29.0,21.0,29.0,21.3,17.0,92,74,44,0.00,40.00,0,-999,0,0.00
2013-4-21,30.0,24.7,15.0,26.0,22.3,13.0,97,91,74,0.00,40.00,0,-999,0,0.01
2013-4-22,16.0,9.5,-3.0,12.0,5.9,-8.0,92,85,77,0.00,40.00,0,-999,0,0.02
2013-4-23,29.0,13.7,-7.0,19.0,6.8,-11.0,83,74,57,0.00,40.00,0,-999,0,0.01
2013-4-24,33.0,29.8,28.0,19.0,11.0,5.0,56,45,34,0.00,40.00,0,-999,0,0.00
2013-4-25,44.0,35.7,27.0,15.0,8.1,1.0,56,33,20,0.00,40.00,0,-999,0,0.00
2013-4-26,51.0,38.6,24.0,22.0,15.1,11.0,64,40,27,0.00,40.00,0,-999,0,0.00
2013-4-27,53.0,40.9,28.0,22.0,17.4,12.0,62,40,22,0.00,40.00,0,-999,0,0.00
2013-4-28,45.0,37.2,32.0,34.0,27.1,19.0,95,69,34,0.00,40.00,0,-999,0,0.00
2013-4-29,47.0,39.8,27.0,30.0,22.5,17.0,92,52,33,0.00,40.00,0,-999,0,0.00
2013-4-30,24.0,20.4,17.0,23.0,18.9,15.0,96,94,92,0.00,40.00,0,-999,0,0.02
2013-5-1,22.0,16.3,9.0,18.0,12.9,6.0,93,86,75,0.00,40.00,0,-999,0,0.01
2013-5-2,37.0,23.8,6.0,21.0,13.9,3.0,88,67,46,0.00,40.00,0,-999,0,0.01
2013-5-3,46.0,35.0,21.0,30.0,20.4,13.0,87,58,31,0.00,40.00,0,-999,0,0.00
2013-5-4,35.0,30.8,28.0,31.0,28.5,27.0,97,91,83,0.00,40.00,0,-999,0,0.01
2013-5-5,43.0,33.0,20.0,27.0,16.6,-99.9,94,64,48,0.00,40.00,0,-999,0,0.00
2013-5-6,52.0,40.9,27.0,28.0,23.9,21.0,79,53,36,0.00,40.00,0,-999,0,0.00
2013-5-7,55.0,41.0,28.0,32.0,24.2,16.0,72,53,30,0.00,40.00,0,-999,0,0.00
2013-5-8,51.0,41.4,31.0,29.0,26.1,21.0,82,57,31,0.00,40.00,0,-999,0,0.00
2013-5-9,50.0,38.8,30.0,37.0,19.0,-99.9,88,67,41,0.00,40.00,0,-999,0,0.00
2013-5-10,54.0,40.5,30.0,37.0,17.3,-99.9,92,61,31,0.00,40.00,0,-999,0,0.00
2013-5-11,53.0,40.5,28.0,32.0,27.9,22.0,94,65,33,0.00,40.00,0,-999,0,0.00
2013-5-12,62.0,51.9,38.0,33.0,29.4,26.0,79,44,28,0.00,40.00,0,-999,0,0.01
2013-5-13,67.0,56.1,42.0,35.0,29.3,25.0,66,39,21,0.00,40.00,0,-999,0,0.00
2013-5-14,65.0,56.3,43.0,39.0,26.1,16.0,81,35,16,0.00,40.00,0,-999,0,0.00
2013-5-15,60.0,48.3,33.0,37.0,33.4,18.0,90,60,19,0.00,40.00,0,-999,0,0.00
2013-5-16,54.0,47.0,41.0,44.0,32.1,-99.9,87,69,52,0.00,40.00,0,-999,0,0.00
2013-5-17,53.0,44.7,39.0,46.0,38.1,30.0,99,78,60,0.00,40.00,0,-999,0,0.01
2013-5-18,48.0,38.2,31.0,41.0,34.6,29.0,97,87,64,0.00,40.00,0,-999,0,0.00
2013-5-19,49.0,38.7,34.0,40.0,29.3,-99.9,97,85,61,0.00,40.00,0,-999,0,0.00
2013-5-20,37.0,33.0,31.0,33.0,29.1,24.0,98,86,74,0.00,40.00,0,-999,0,0.03
2013-5-21,51.0,39.1,31.0,33.0,25.0,9.0,94,64,20,0.00,40.00,0,-999,0,0.01
2013-5-22,51.0,41.8,31.0,39.0,30.7,24.0,98,67,44,0.00,40.00,0,-999,0,0.00
2013-5-23,60.0,46.7,34.0,45.0,36.2,21.0,98,74,22,0.00,40.00,0,-999,0,0.00
2013-5-24,55.0,46.7,37.0,41.0,24.9,6.0,96,52,15,0.00,40.00,0,-999,0,0.00
2013-5-25,62.0,51.6,39.0,34.0,17.6,7.0,76,28,17,0.00,40.00,0,-999,0,0.00
2013-5-26,59.0,46.6,35.0,44.0,34.6,20.0,91,64,46,0.00,40.00,0,-999,0,0.00
2013-5-27,53.0,43.3,35.0,39.0,27.8,18.0,90,58,33,0.00,40.00,0,-999,0,0.00
2013-5-28,51.0,42.0,32.0,37.0,30.3,22.0,89,65,42,0.00,40.00,0,-999,0,0.00
2013-5-29,44.0,39.0,36.0,41.0,37.7,35.0,98,95,87,0.00,40.00,0,-999,0,0.02
2013-5-30,41.0,37.3,35.0,36.0,32.5,26.0,99,83,63,0.00,40.00,0,-999,0,0.01
2013-5-31,42.0,37.3,32.0,31.0,26.8,24.0,88,66,57,0.00,40.00,0,-999,0,0.00
2013-6-1,44.0,38.0,30.0,36.0,30.7,20.0,92,75,54,0.00,40.00,0,-999,0,0.00
2013-6-2,59.0,48.8,35.0,40.0,32.4,25.0,83,56,29,0.00,40.00,0,-999,0,0.00
2013-6-3,53.0,45.3,39.0,37.0,26.5,21.0,80,49,33,0.00,40.00,0,-999,0,0.00
2013-6-4,40.0,34.5,30.0,34.0,30.0,21.0,99,85,49,0.00,40.00,0,-999,0,0.00
2013-6-5,47.0,36.8,26.0,37.0,31.2,25.0,99,81,66,0.00,40.00,0,-999,0,0.00
2013-6-6,58.0,47.9,35.0,40.0,35.1,28.0,85,62,43,0.00,40.00,0,-999,0,0.01
2013-6-7,63.0,52.7,40.0,49.0,35.4,27.0,86,54,27,0.00,40.00,0,-999,0,0.00
2013-6-8,58.0,47.6,38.0,40.0,34.6,23.0,92,65,26,0.00,40.00,0,-999,0,0.01
2013-6-9,69.0,53.9,35.0,38.0,31.4,21.0,87,49,19,0.00,40.00,0,-999,0,0.00
2013-6-10,67.0,59.8,51.0,46.0,37.7,28.0,79,45,29,0.00,40.00,0,-999,0,0.00
2013-6-11,70.0,56.3,47.0,55.0,41.7,23.0,92,61,18,0.00,40.00,0,-999,0,0.00
2013-6-12,63.0,52.2,42.0,50.0,42.4,32.0,99,72,33,0.00,40.00,0,-999,0,0.02
2013-6-13,68.0,56.9,43.0,51.0,40.8,32.0,96,60,29,0.00,40.00,0,-999,0,0.01
2013-6-14,56.0,48.8,36.0,43.0,28.5,16.0,90,50,22,0.00,40.00,0,-999,0,0.00
2013-6-15,60.0,46.4,30.0,34.0,24.7,2.0,91,51,10,0.00,40.00,0,-999,0,0.00
2013-6-16,62.0,49.1,32.0,40.0,33.3,22.0,77,57,25,0.00,40.00,0,-999,0,0.00
2013-6-17,59.0,51.2,40.0,48.0,42.3,33.0,87,72,53,0.00,40.00,0,-999,0,0.01
2013-6-18,62.0,52.1,43.0,47.0,38.1,30.0,92,63,31,0.00,40.00,0,-999,0,0.00
2013-6-19,72.0,61.3,46.0,39.0,25.4,11.0,75,31,10,0.00,40.00,0,-999,0,0.01
2013-6-20,59.0,50.9,40.0,38.0,16.8,2.0,82,32,14,0.00,40.00,0,-999,0,0.00
2013-6-22,53.0,45.0,38.0,44.0,39.9,37.0,98,83,61,0.00,40.00,0,-999,0,0.02
2013-6-23,59.0,48.3,34.0,41.0,31.4,24.0,88,56,27,0.00,40.00,0,-999,0,0.01
2013-6-24,68.0,56.1,41.0,40.0,30.5,22.0,69,42,19,0.00,40.00,0,-999,0,0.00
2013-6-25,63.0,55.8,48.0,47.0,33.9,29.0,75,45,32,0.00,40.00,0,-999,0,0.00
2013-6-26,67.0,57.0,45.0,44.0,37.3,34.0,72,49,33,0.00,40.00,0,-999,0,0.00
2013-6-27,72.0,58.9,47.0,48.0,40.9,29.0,84,54,20,0.00,40.00,0,-999,0,0.00
2013-6-28,67.0,59.1,48.0,51.0,47.2,44.0,91,66,51,0.00,40.00,0,-999,0,0.00
2013-6-29,67.0,58.6,46.0,54.0,41.2,-99.9,84,63,55,0.00,40.00,0,-999,0,0.00
2013-6-30,66.0,57.8,49.0,52.0,46.1,40.0,82,66,51,0.00,40.00,0,-999,0,0.00
2013-7-1,66.0,56.3,43.0,49.0,45.3,38.0,85,68,51,0.00,40.00,0,-999,0,0.00
2013-7-2,71.0,57.2,44.0,50.0,42.8,38.0,92,63,34,0.00,40.00,0,-999,0,0.01
2013-7-3,74.0,65.9,51.0,49.0,42.0,36.0,69,44,30,0.00,40.00,0,-999,0,0.00
2013-7-4,66.0,57.3,49.0,53.0,39.0,-99.9,96,64,46,0.00,40.00,0,-999,0,0.02
2013-7-5,64.0,56.2,48.0,52.0,48.8,46.0,98,77,60,0.00,40.00,0,-999,0,0.03
2013-7-6,64.0,54.7,49.0,53.0,44.6,39.0,81,70,56,0.00,40.00,0,-999,0,0.01
2013-7-7,71.0,60.8,50.0,48.0,41.4,32.0,87,52,25,0.00,40.00,0,-999,0,0.00
2013-7-8,71.0,57.9,49.0,48.0,42.0,33.0,78,58,32,0.00,40.00,0,-999,0,0.00
2013-7-9,66.0,53.5,43.0,48.0,42.6,35.0,88,68,52,0.00,40.00,0,-999,0,0.00
2013-7-10,73.0,59.1,47.0,46.0,40.3,24.0,89,55,16,0.00,40.00,0,-999,0,0.00
2013-7-11,79.0,64.7,50.0,47.0,37.0,25.0,71,42,16,0.00,40.00,0,-999,0,0.69
2013-7-12,64.0,57.8,52.0,53.0,47.3,40.0,86,69,49,0.00,40.00,0,-999,0,0.68
2013-7-13,73.0,62.0,48.0,47.0,34.3,23.0,79,40,18,0.00,40.00,0,-999,0,0.00
2013-7-14,64.0,56.2,48.0,50.0,42.3,-99.9,99,70,51,0.00,40.00,0,-999,0,0.00
2013-7-15,75.0,59.6,51.0,47.0,41.1,33.0,83,54,22,0.00,40.00,0,-999,0,0.00
2013-7-16,73.0,59.7,51.0,50.0,46.2,36.0,86,63,39,0.00,40.00,0,-999,0,0.00
2013-7-17,73.0,62.2,48.0,51.0,46.2,40.0,87,58,40,0.00,40.00,0,-999,0,0.00
2013-7-18,70.0,63.7,52.0,52.0,47.0,40.0,80,55,44,0.00,40.00,0,-999,0,0.00
2013-7-19,73.0,61.6,48.0,51.0,44.7,40.0,86,57,38,0.00,40.00,0,-999,0,0.00
2013-7-20,71.0,59.5,48.0,45.0,40.9,37.0,73,52,38,0.00,40.00,0,-999,0,0.00
2013-7-21,74.0,59.9,44.0,45.0,36.8,29.0,75,46,27,0.00,40.00,0,-999,0,0.00
2013-7-22,77.0,63.0,45.0,41.0,29.8,15.0,57,33,10,0.00,40.00,0,-999,0,0.00
2013-7-23,70.0,60.6,49.0,40.0,35.7,32.0,59,41,29,0.00,40.00,0,-999,0,0.00
2013-7-24,71.0,58.4,43.0,45.0,40.3,33.0,80,54,25,0.00,40.00,0,-999,0,0.00
2013-7-25,61.0,53.8,44.0,54.0,45.4,30.0,97,75,48,0.00,40.00,0,-999,0,0.02
2013-7-26,65.0,55.8,43.0,50.0,45.6,42.0,97,71,53,0.00,40.00,0,-999,0,0.01
2013-7-27,66.0,53.0,47.0,51.0,42.3,39.0,89,68,40,0.00,40.00,0,-999,0,0.02
2013-7-28,60.0,52.2,44.0,48.0,42.8,38.0,92,71,54,0.00,40.00,0,-999,0,0.01
2013-7-29,58.0,51.8,45.0,49.0,44.8,37.0,92,77,58,0.00,40.00,0,-999,0,0.00
2013-7-30,66.0,56.5,48.0,47.0,40.0,32.0,89,57,29,0.00,40.00,0,-999,0,0.00
2013-7-31,67.0,56.0,40.0,48.0,44.4,38.0,95,67,47,0.00,40.00,0,-999,0,0.00
2013-8-1,68.0,57.1,45.0,51.0,42.2,37.0,88,60,40,0.00,40.00,0,-999,0,0.00
2013-8-2,69.0,58.2,47.0,51.0,42.1,27.0,93,61,21,0.00,40.00,0,-999,0,0.00
2013-8-3,67.0,55.5,44.0,56.0,49.5,42.0,94,80,65,0.00,40.00,0,-999,0,0.00
2013-8-4,73.0,60.2,44.0,54.0,43.2,22.0,92,63,15,0.00,40.00,0,-999,0,0.00
2013-8-5,72.0,58.0,43.0,51.0,38.6,24.0,94,57,17,0.00,40.00,0,-999,0,0.00
2013-8-6,65.0,54.9,42.0,48.0,42.4,37.0,90,64,49,0.00,40.00,0,-999,0,0.00
2013-8-7,68.0,53.8,40.0,49.0,41.7,37.0,87,66,43,0.00,40.00,0,-999,0,0.00
2013-8-8,64.0,50.0,43.0,51.0,43.7,36.0,96,81,47,0.00,40.00,0,-999,0,0.02
2013-8-9,55.0,48.1,43.0,50.0,45.6,42.0,98,92,68,0.00,40.00,0,-999,0,0.02
2013-8-10,67.0,55.6,45.0,48.0,41.6,35.0,96,61,38,0.00,40.00,0,-999,0,0.01
2013-8-11,66.0,53.6,44.0,45.0,39.2,33.0,91,61,35,0.00,40.00,0,-999,0,0.02
2013-8-12,66.0,52.0,42.0,48.0,33.2,-99.9,92,63,36,0.00,40.00,0,-999,0,0.01
2013-8-13,61.0,50.5,44.0,51.0,40.5,32.0,93,69,48,0.00,40.00,0,-999,0,0.01
2013-8-14,61.0,50.2,40.0,47.0,38.8,35.0,84,67,45,0.00,40.00,0,-999,0,0.00
2013-8-15,68.0,57.6,42.0,46.0,38.6,33.0,79,52,33,0.00,40.00,0,-999,0,0.00
2013-8-21,71.0,60.2,54.0,42.0,38.2,31.0,61,45,27,0.00,40.00,0,-999,0,0.00
2013-8-22,69.0,58.1,51.0,53.0,46.8,40.0,91,67,45,0.00,40.00,0,-999,0,0.00
2013-8-23,74.0,65.5,55.0,46.0,41.9,36.0,60,44,26,0.00,40.00,0,-999,0,0.00
2013-8-24,65.0,58.8,52.0,52.0,47.5,42.0,79,66,54,0.00,40.00,0,-999,0,0.00
2013-8-25,70.0,59.3,47.0,45.0,41.2,36.0,81,54,29,0.00,40.00,0,-999,0,0.00
2013-8-26,69.0,60.9,55.0,51.0,40.0,34.0,75,49,29,0.00,40.00,0,-999,0,0.00
2013-8-27,67.0,58.8,52.0,47.0,44.2,41.0,72,60,42,0.00,40.00,0,-999,0,0.00
2013-8-28,72.0,66.8,56.0,47.0,43.5,40.0,55,44,35,0.00,40.00,0,-999,0,0.00
2013-8-29,71.0,59.0,46.0,46.0,41.2,35.0,76,54,35,0.00,40.00,0,-999,0,0.00
2013-8-30,76.0,64.4,47.0,45.0,33.8,23.0,77,38,15,0.00,40.00,0,-999,0,0.00
2013-8-31,64.0,53.7,44.0,43.0,37.8,32.0,75,57,39,0.00,40.00,0,-999,0,0.00
2013-9-1,72.0,56.3,42.0,43.0,36.4,34.0,79,52,25,0.00,40.00,0,-999,0,0.00
2013-9-2,74.0,60.5,50.0,52.0,38.1,26.0,92,47,22,0.00,40.00,0,-999,0,0.00
2013-9-3,68.0,57.2,52.0,52.0,49.0,46.0,92,75,54,0.00,40.00,0,-999,0,0.00
2013-9-4,75.0,63.8,53.0,51.0,47.0,40.0,87,58,29,0.00,40.00,0,-999,0,0.00
2013-9-5,75.0,65.1,50.0,48.0,43.1,37.0,75,48,27,0.00,40.00,0,-999,0,0.00
2013-9-6,72.0,63.6,55.0,44.0,41.1,37.0,61,45,29,0.00,40.00,0,-999,0,0.00
2013-9-8,63.0,54.9,46.0,53.0,48.6,42.0,90,80,66,0.00,40.00,0,-999,0,0.00
2013-9-9,54.0,47.8,39.0,47.0,41.8,36.0,91,80,70,0.00,40.00,0,-999,0,0.00
2013-9-10,57.0,48.9,37.0,44.0,40.1,34.0,91,73,59,0.00,40.00,0,-999,0,0.00
2013-9-11,63.0,55.3,41.0,41.0,38.7,33.0,71,54,45,0.00,40.00,0,-999,0,0.00
2013-9-12,57.0,47.9,41.0,47.0,39.6,36.0,84,74,53,0.00,40.00,0,-999,0,0.00
2013-9-13,64.0,52.4,45.0,52.0,46.8,43.0,97,82,52,0.00,40.00,0,-999,0,0.00
2013-9-14,54.0,47.9,43.0,51.0,46.5,43.0,99,95,84,0.00,40.00,0,-999,0,0.04
2013-9-15,55.0,47.7,42.0,47.0,44.0,40.0,99,88,69,0.00,40.00,0,-999,0,0.01
2013-9-16,65.0,53.5,47.0,46.0,41.0,35.0,75,63,47,0.00,40.00,0,-999,0,0.00
2013-9-17,65.0,53.3,45.0,43.0,37.4,31.0,77,58,30,0.00,40.00,0,-999,0,0.00
2013-9-18,47.0,41.0,38.0,43.0,33.4,22.0,92,75,52,0.00,40.00,0,-999,0,0.01
2013-9-19,45.0,35.2,29.0,35.0,30.1,25.0,95,83,45,0.00,40.00,0,-999,0,0.00
2013-9-20,59.0,45.1,28.0,35.0,25.6,12.0,87,50,27,0.00,40.00,0,-999,0,0.01
2013-9-21,63.0,58.2,51.0,25.0,19.9,8.0,31,22,17,0.00,40.00,0,-999,0,0.00
2013-9-22,60.0,52.7,42.0,35.0,29.9,19.0,66,43,24,0.00,40.00,0,-999,0,0.00
2013-9-23,50.0,42.4,35.0,39.0,30.9,20.0,92,67,33,0.00,40.00,0,-999,0,0.00
2013-9-24,58.0,47.3,33.0,28.0,22.0,15.0,67,40,21,0.00,40.00,0,-999,0,0.00
2013-9-25,49.0,40.5,33.0,37.0,30.3,21.0,99,70,36,0.00,40.00,0,-999,0,0.00
2013-9-26,33.0,31.0,26.0,32.0,29.5,26.0,98,94,81,0.00,40.00,0,-999,0,0.04
2013-9-27,29.0,24.9,19.0,26.0,23.2,17.0,97,94,88,0.00,40.00,0,-999,0,0.03
2013-9-28,42.0,31.5,19.0,29.0,24.0,18.0,93,75,57,0.00,40.00,0,-999,0,0.01
2013-9-29,45.0,42.6,40.0,31.0,26.7,23.0,66,53,46,0.00,40.00,0,-999,0,0.01
2013-9-30,50.0,44.7,40.0,37.0,32.4,27.0,67,62,57,0.00,40.00,0,-999,0,0.00
2013-10-1,50.0,40.0,33.0,28.0,25.5,24.0,77,59,36,0.00,40.00,0,-999,0,0.00
2013-10-2,42.0,34.5,28.0,32.0,29.7,25.0,99,84,66,0.00,40.00,0,-999,0,0.02
2013-10-3,34.0,29.2,24.0,32.0,28.3,23.0,99,97,93,0.00,40.00,0,-999,0,0.04
2013-10-4,24.0,21.4,18.0,22.0,17.9,16.0,96,86,74,0.00,40.00,0,-999,0,0.06
2013-10-5,40.0,39.2,38.0,24.0,20.6,17.0,54,47,39,0.00,40.00,0,-999,0,0.00
2013-10-6,50.0,43.3,37.0,33.0,22.7,14.0,58,45,34,0.00,40.00,0,-999,0,0.00
2013-10-7,58.0,47.3,36.0,16.0,10.3,3.0,40,24,11,0.00,40.00,0,-999,0,0.00
2013-10-8,48.0,39.7,31.0,32.0,24.5,15.0,86,55,38,0.00,40.00,0,-999,0,0.00
2013-10-9,38.0,33.1,29.0,31.0,28.9,27.0,92,85,73,0.00,40.00,0,-999,0,0.00
2013-10-10,45.0,35.2,29.0,32.0,27.9,27.0,91,77,49,0.00,40.00,0,-999,0,0.00
2013-10-11,39.0,31.9,23.0,30.0,19.4,11.0,86,61,38,0.00,40.00,0,-999,0,0.00
2013-10-12,38.0,28.7,17.0,26.0,18.5,13.0,85,67,43,0.00,40.00,0,-999,0,0.00
2013-10-13,41.0,36.8,31.0,33.0,29.1,22.0,99,75,63,0.00,40.00,0,-999,0,0.00
2013-10-21,39.0,37.0,34.0,27.0,25.0,21.0,63,61,57,0.00,40.00,0,-999,0,0.00
2013-10-22,47.0,39.3,35.0,31.0,23.3,16.0,68,52,38,0.00,40.00,0,-999,0,0.00
2013-10-23,42.0,32.5,28.0,29.0,23.8,18.0,99,71,59,0.00,40.00,0,-999,0,0.00
2013-10-24,41.0,34.8,30.0,34.0,30.2,28.0,93,85,77,0.00,40.00,0,-999,0,0.00
2013-10-25,41.0,35.8,32.0,26.0,19.4,17.0,54,50,46,0.00,40.00,0,-999,0,0.00
2013-10-26,51.0,39.0,27.0,22.0,15.9,10.0,60,42,19,0.00,40.00,0,-999,0,0.00
2013-10-27,28.0,28.0,28.0,21.0,21.0,21.0,75,75,75,0.00,40.00,0,-999,0,0.00
2013-10-28,27.0,24.3,21.0,26.0,23.0,20.0,97,94,87,0.00,40.00,0,-999,0,0.00
2013-10-29,40.0,29.0,25.0,28.0,23.0,19.0,97,79,62,0.00,40.00,0,-999,0,0.00
2013-10-30,33.0,29.7,26.0,23.0,21.7,21.0,81,72,65,0.00,40.00,0,-999,0,0.00
2013-10-31,37.0,31.2,26.0,23.0,19.9,16.0,77,63,52,0.00,40.00,0,-999,0,0.00
2013-11-1,36.0,24.8,17.0,17.0,13.5,9.0,85,66,38,0.00,40.00,0,-999,0,0.00
2013-11-2,47.0,40.3,19.0,12.0,3.0,-2.0,69,25,13,0.00,40.00,0,-999,0,0.00
2013-11-3,39.0,30.4,17.0,22.0,13.2,7.0,93,53,33,0.00,40.00,0,-999,0,0.00
2013-11-12,54.0,41.9,25.0,19.0,8.4,-4.0,48,28,10,0.00,40.00,0,-999,0,0.00
2013-11-13,44.0,40.7,36.0,26.0,24.0,23.0,67,52,43,0.00,40.00,0,-999,0,0.00
2013-11-14,34.0,25.8,21.0,21.0,10.7,7.0,81,54,35,0.00,40.00,0,-999,0,0.00
2013-11-15,32.0,26.8,18.0,11.0,7.6,4.0,62,44,37,0.00,40.00,0,-999,0,0.00
2013-11-16,25.0,22.8,20.0,20.0,14.1,7.0,90,70,45,0.00,40.00,0,-999,0,0.00
2013-11-17,24.0,24.0,24.0,9.0,9.0,9.0,52,52,52,0.00,40.00,0,-999,0,0.00
2013-11-18,44.0,33.3,17.0,10.0,7.6,4.0,65,36,19,0.00,40.00,0,-999,0,0.00
2013-11-19,40.0,35.7,31.0,22.0,15.7,7.0,56,44,29,0.00,40.00,0,-999,0,0.00
2013-11-20,33.0,23.4,8.0,18.0,13.4,5.0,88,67,52,0.00,40.00,0,-999,0,0.00
2013-11-21,20.0,9.9,0.0,14.0,-0.6,-9.0,89,63,48,0.00,40.00,0,-999,0,0.00
2013-11-22,23.0,13.2,5.0,2.0,-1.4,-6.0,72,54,28,0.00,40.00,0,-999,0,0.00
2013-11-23,39.0,25.9,10.0,12.0,3.5,-8.0,66,40,22,0.00,40.00,0,-999,0,0.00
2013-11-24,41.0,31.1,15.0,19.0,7.8,-8.0,53,39,17,0.00,40.00,0,-999,0,0.00
2013-11-25,31.0,28.6,25.0,16.0,14.0,12.0,59,54,50,0.00,40.00,0,-999,0,0.00
2013-11-26,38.0,29.9,26.0,20.0,14.2,7.0,64,53,36,0.00,40.00,0,-999,0,0.00
2013-11-27,43.0,32.1,21.0,20.0,13.8,6.0,75,48,26,0.00,40.00,0,-999,0,0.00
2013-11-28,44.0,30.9,17.0,23.0,13.4,10.0,80,51,29,0.00,40.00,0,-999,0,0.00
2013-11-29,41.0,35.3,29.0,14.0,12.4,10.0,52,39,33,0.00,40.00,0,-999,0,0.00
2013-11-30,33.0,27.5,22.0,20.0,17.1,14.0,80,66,44,0.00,40.00,0,-999,0,0.00
2013-12-1,32.0,28.6,26.0,19.0,17.3,16.0,71,62,53,0.00,40.00,0,-999,0,0.00
2013-12-2,35.0,31.7,25.0,24.0,22.0,20.0,94,68,54,0.00,40.00,0,-999,0,0.00
2013-12-3,5.0,-1.7,-11.0,2.0,-6.2,-16.0,86,81,78,0.00,40.00,0,-999,0,0.01
2013-12-4,-7.0,-10.4,-16.0,-12.0,-15.8,-21.0,77,76,75,0.00,40.00,0,-999,0,0.00
2013-12-9,15.0,9.1,-19.0,4.0,-0.8,-24.0,75,64,48,0.00,40.00,0,-999,0,0.01
2013-12-10,17.0,10.2,-1.0,3.0,-0.2,-4.0,87,63,50,0.00,40.00,0,-999,0,0.00
2013-12-11,26.0,17.2,-2.0,11.0,-1.3,-5.0,85,47,28,0.00,40.00,0,-999,0,0.00
2013-12-12,41.0,30.0,22.0,13.0,10.7,6.0,69,47,32,0.00,40.00,0,-999,0,0.00
2013-12-13,24.0,20.2,16.0,16.0,12.2,8.0,83,71,65,0.00,40.00,0,-999,0,0.00
2013-12-15,37.0,35.3,33.0,7.0,3.7,1.0,28,26,22,0.00,40.00,0,-999,0,0.00
2013-12-16,35.0,30.6,28.0,12.0,10.0,8.0,47,42,35,0.00,40.00,0,-999,0,0.00
2013-12-17,44.0,37.6,30.0,12.0,9.4,4.0,48,32,19,0.00,40.00,0,-999,0,0.00
2013-12-18,42.0,37.0,24.0,14.0,8.9,2.0,64,33,21,0.00,40.00,0,-999,0,0.01
2013-12-19,23.0,13.8,2.0,17.0,8.7,-2.0,89,80,61,0.00,40.00,0,-999,0,0.00
2013-12-20,18.0,8.0,0.0,7.0,0.0,-5.0,84,72,48,0.00,40.00,0,-999,0,0.00
2013-12-21,20.0,13.4,9.0,15.0,7.7,1.0,91,78,59,0.00,40.00,0,-999,0,0.00
2013-12-22,13.0,10.2,7.0,5.0,3.2,1.0,87,73,60,0.00,40.00,0,-999,0,0.00
2013-12-23,33.0,25.8,10.0,21.0,13.8,-2.0,67,59,53,0.00,40.00,0,-999,0,0.01
2013-12-24,25.0,17.3,6.0,18.0,11.1,2.0,91,77,52,0.00,40.00,0,-999,0,0.00
2013-12-25,21.0,11.0,6.0,9.0,5.8,4.0,89,80,59,0.00,40.00,0,-999,0,0.00
2013-12-26,39.0,32.0,25.0,22.0,14.9,5.0,67,50,33,0.00,40.00,0,-999,0,0.00
2013-12-27,35.0,32.0,29.0,20.0,19.5,19.0,69,60,52,0.00,40.00,0,-999,0,0.00
2013-12-28,20.0,18.5,17.0,8.0,7.5,7.0,64,60,57,0.00,40.00,0,-999,0,0.00
2013-12-29,24.0,13.3,2.0,6.0,0.3,-4.0,75,56,45,0.00,40.00,0,-999,0,0.00
2013-12-30,26.0,25.0,24.0,14.0,11.7,9.0,65,57,47,0.00,40.00,0,-999,0,0.00
2013-12-31,28.0,26.5,25.0,20.0,16.8,13.0,80,67,55,0.00,40.00,0,-999,0,0.00
2014-1-1,19.0,15.1,9.0,16.0,9.9,4.0,92,80,56,0.00,40.00,0,-999,0,0.00
2014-1-2,31.0,17.8,10.0,18.0,6.8,0.0,69,62,53,0.00,40.00,0,-999,0,0.00